Location: �terpigny
(49.8910°N, 2.9249°E)
Time: 01:31:46
(UTC+00:00)

Cosmos 1892 - Pass Details

Date: 24 October 2021
Orbit: 501 x 522 km, 82.5° (Epoch: 05 December)

Event Time Altitude Azimuth Distance (km) Brightness Sun altitude
Rises 18:44:16 0° 347° (NNW) 2,620 6.5 -20.7°
Reaches altitude 10° 18:46:25 10° 343° (NNW) 1,728 5.6 -21.1°
Maximum altitude 18:50:08 60° 264° (W) 580 3.1 -21.6°
Enters shadow 18:53:03 16° 186° (S) 1,396 4.8 -22.1°
